This is the latest recevied weather packets stored in our database for station/object KY4OP-13. If no packets are shown the sender has not sent any weather packets the latest 10 day(s).
| Time | Temp. | Humidity | Pressure | Rain* | Wind** | Luminosity | Snow |
|---|---|---|---|---|---|---|---|
| 1777697943 | 11.11° C | 80% | 1014.9 hPa | 0 mm | - | - | - |
| 1777697640 | 11.11° C | 80% | 1015 hPa | 0 mm | - | - | - |
| 1777697337 | 11.11° C | 80% | 1014.7 hPa | 0 mm | - | - | - |
| 1777697032 | 11.67° C | 80% | 1014.9 hPa | 0 mm | - | - | - |
| 1777696730 | 11.67° C | 78% | 1015 hPa | 0 mm | - | - | - |
| 1777696427 | 11.67° C | 78% | 1014.8 hPa | 0 mm | - | - | - |
| 1777696126 | 11.67° C | 77% | 1014.8 hPa | 0 mm | - | - | - |
| 1777695824 | 11.67° C | 79% | 1014.7 hPa | 0 mm | - | - | - |
| 1777695521 | 11.67° C | 78% | 1014.9 hPa | 0 mm | - | - | - |
| 1777695218 | 11.67° C | 78% | 1014.6 hPa | 0 mm | - | - | - |
| 1777694916 | 12.22° C | 78% | 1014.9 hPa | 0 mm | - | - | - |
| 1777694613 | 12.22° C | 77% | 1015 hPa | 0 mm | - | - | - |
| 1777694309 | 12.22° C | 74% | 1014.8 hPa | 0 mm | - | - | - |
| 1777694005 | 12.22° C | 74% | 1014.8 hPa | 0 mm | - | - | - |
| 1777693703 | 12.22° C | 75% | 1014.6 hPa | 0 mm | - | - | - |
| 1777693401 | 12.22° C | 74% | 1014.5 hPa | 0 mm | - | - | - |
| 1777693099 | 12.22° C | 74% | 1014.5 hPa | 0 mm | - | - | - |
| 1777692796 | 12.78° C | 74% | 1014.3 hPa | 0 mm | - | - | - |
| 1777692493 | 12.78° C | 70% | 1014.5 hPa | 0 mm | - | - | - |
| 1777692189 | 12.78° C | 70% | 1014.3 hPa | 0 mm | - | - | - |
| 1777691887 | 12.78° C | 68% | 1014.5 hPa | 0 mm | - | - | - |
| 1777691585 | 13.33° C | 67% | 1014.5 hPa | 0 mm | - | - | - |
| 1777691283 | 13.33° C | 66% | 1014.6 hPa | 0 mm | - | - | - |
| 1777690981 | 13.33° C | 65% | 1014.6 hPa | 0 mm | - | - | - |
| 1777690678 | 13.33° C | 62% | 1014.2 hPa | 0 mm | - | - | - |
* Rain latest hour (hover to see other rain measurements)
** Current wind speed in m/s (hover to see current wind gust speed)